K4AVM-13 Weather Reports


time (UTC)temp
F
wind
direction
speed
knots
gust
knots
rain 1hr
in
rain 24hr
in
rain mn
in
humidity
%
barometer
mb
20260505070224 61 166 0.0 0.0 0.00 0.00 0.00 69 1014.5
20260505065720 61 162 0.9 0.9 0.00 0.00 0.00 69 1014.8
20260505065217 62 99 0.0 0.0 0.00 0.00 0.00 68 1015.0
20260505064714 62 141 0.0 0.9 0.00 0.00 0.00 67 1014.8
20260505064212 62 151 0.0 1.7 0.00 0.00 0.00 67 1014.6
20260505063709 62 173 0.0 1.7 0.00 0.00 0.00 66 1014.6
20260505063205 62 152 0.0 1.7 0.00 0.00 0.00 66 1014.5
20260505062701 62 154 0.0 0.9 0.00 0.00 0.00 65 1014.5
20260505062200 63 135 0.0 2.6 0.00 0.00 0.00 64 1014.5
20260505061656 63 132 1.7 5.2 0.00 0.00 0.00 64 1014.4
20260505061154 63 200 0.9 2.6 0.00 0.00 0.00 64 1014.3
20260505060651 63 141 0.0 1.7 0.00 0.00 0.00 64 1014.5
20260505060148 63 186 1.7 5.2 0.00 0.00 0.00 64 1014.6
20260505055643 63 155 0.0 0.9 0.00 0.00 0.00 63 1014.6
20260505055140 63 151 1.7 3.5 0.00 0.00 0.00 63 1014.5
20260505054638 63 145 0.0 1.7 0.00 0.00 0.00 63 1014.6
20260505054136 63 115 0.9 5.2 0.00 0.00 0.00 62 1014.6
20260505053633 63 151 0.9 2.6 0.00 0.00 0.00 62 1014.6
20260505053129 63 177 0.0 1.7 0.00 0.00 0.00 61 1014.6
20260505052626 64 183 0.0 2.6 0.00 0.00 0.00 61 1014.5
20260505052124 64 132 0.9 2.6 0.00 0.00 0.00 61 1014.6
20260505051621 64 123 0.9 3.5 0.00 0.00 0.00 59 1014.7
20260505051119 64 118 0.9 6.1 0.00 0.00 0.00 59 1014.6
20260505050616 64 160 1.7 5.2 0.00 0.00 0.00 58 1014.7
20260505050114 64 174 0.9 1.7 0.00 0.00 0.00 58 1014.5
20260505041544 65 136 0.9 5.2 0.00 0.00 0.00 54 1014.3
20260505041041 65 171 0.0 0.9 0.00 0.00 0.00 54 1014.2
20260505040538 65 141 0.9 1.7 0.00 0.00 0.00 53 1014.0
20260505040036 65 193 1.7 2.6 0.00 0.00 0.00 54 1014.2
20260505035531 65 132 0.0 0.9 0.00 0.00 0.00 54 1014.2
20260505035028 65 149 0.0 1.7 0.00 0.00 0.00 55 1014.2
20260505034525 65 137 0.0 0.9 0.00 0.00 0.00 54 1014.3
20260505034022 65 178 0.0 0.0 0.00 0.00 0.00 54 1014.2
20260505033519 65 151 0.0 0.0 0.00 0.00 0.00 54 1014.3
20260505033017 65 170 0.9 0.9 0.00 0.00 0.00 53 1014.1
20260505032514 66 141 0.0 1.7 0.00 0.00 0.00 52 1014.1
20260505032010 65 150 0.0 0.0 0.00 0.00 0.00 54 1014.0
20260505031508 66 153 0.0 0.9 0.00 0.00 0.00 53 1014.0
20260505031004 65 150 0.0 0.0 0.00 0.00 0.00 53 1014.1
20260505030501 65 128 0.0 0.0 0.00 0.00 0.00 54 1014.1
20260505025956 65 141 0.0 0.0 0.00 0.00 0.00 54 1014.0
20260505025453 65 159 0.0 0.9 0.00 0.00 0.00 54 1014.1
20260505024952 65 149 0.0 0.0 0.00 0.00 0.00 53 1014.0
20260505024449 66 135 0.0 0.9 0.00 0.00 0.00 53 1014.1
20260505023946 66 153 0.0 0.9 0.00 0.00 0.00 53 1014.0
20260505023443 65 159 1.7 1.7 0.00 0.00 0.00 52 1014.1
20260505022940 66 154 0.0 0.0 0.00 0.00 0.00 52 1014.0
20260505022438 66 155 0.0 1.7 0.00 0.00 0.00 51 1014.1
20260505021935 66 153 0.0 1.7 0.00 0.00 0.00 50 1014.0
20260505021431 67 180 0.0 1.7 0.00 0.00 0.00 50 1014.1
20260505020927 66 166 0.0 1.7 0.00 0.00 0.00 51 1014.0
20260505020422 66 150 0.0 0.0 0.00 0.00 0.00 52 1013.8
20260505015919 66 155 0.0 0.0 0.00 0.00 0.00 51 1013.9
20260505015417 66 145 0.9 0.9 0.00 0.00 0.00 50 1014.0
20260505014914 66 153 0.0 0.0 0.00 0.00 0.00 51 1014.0
20260505014411 67 165 0.0 0.0 0.00 0.00 0.00 50 1013.8
20260505013908 67 165 0.0 0.0 0.00 0.00 0.00 50 1013.7
20260505013404 67 166 0.0 0.0 0.00 0.00 0.00 48 1013.7
20260505012903 68 151 0.0 0.0 0.00 0.00 0.00 48 1013.6
20260505012400 68 155 0.0 0.0 0.00 0.00 0.00 48 1013.4
20260505011856 69 151 0.0 0.0 0.00 0.00 0.00 47 1013.4
20260505011353 69 163 0.0 0.9 0.00 0.00 0.00 45 1013.5
20260505010849 69 151 0.0 0.0 0.00 0.00 0.00 45 1013.1
20260505010345 70 155 0.0 0.0 0.00 0.00 0.00 44 1013.4
20260505005842 70 141 0.0 0.0 0.00 0.00 0.00 43 1013.2
20260505005338 70 151 0.0 0.9 0.00 0.00 0.00 43 1013.3
20260505004836 69 134 0.0 0.0 0.00 0.00 0.00 44 1013.2
20260505004332 70 141 0.0 0.0 0.00 0.00 0.00 46 1013.2
20260505003830 70 124 0.0 0.9 0.00 0.00 0.00 46 1013.4
20260505003327 70 151 0.0 0.9 0.00 0.00 0.00 44 1013.6
20260505002822 69 235 0.0 0.9 0.00 0.00 0.00 44 1013.2
20260505002320 69 155 0.0 0.9 0.00 0.00 0.00 44 1013.3
20260505001818 69 147 0.0 0.0 0.00 0.00 0.00 44 1013.4
20260505001315 69 155 0.0 0.0 0.00 0.00 0.00 44 1013.5
20260505000812 70 153 0.0 0.9 0.00 0.00 0.00 43 1013.3
20260505000310 69 179 0.9 0.9 0.00 0.00 0.00 42 1013.4
20260504235806 70 154 0.0 0.0 0.00 0.00 0.00 42 1013.4
20260504235304 71 154 0.0 0.0 0.00 0.00 0.00 41 1013.3
20260504234800 71 133 0.9 0.9 0.00 0.00 0.00 40 1013.4
20260504234258 72 158 0.0 0.9 0.00 0.00 0.00 40 1013.1
20260504233753 72 146 0.0 0.9 0.00 0.00 0.00 39 1013.2
20260504233249 73 157 0.0 0.9 0.00 0.00 0.00 39 1013.3
20260504232746 73 189 0.9 1.7 0.00 0.00 0.00 37 1013.1
20260504232243 73 180 0.9 1.7 0.00 0.00 0.00 36 1013.0
20260504231740 74 149 1.7 2.6 0.00 0.00 0.00 36 1013.0
20260504231237 74 119 0.9 1.7 0.00 0.00 0.00 36 1013.0
20260504230732 74 154 0.9 5.2 0.00 0.00 0.00 35 1013.0
20260504230231 75 214 0.9 2.6 0.00 0.00 0.00 36 1013.1
20260504225730 75 187 1.7 6.1 0.00 0.00 0.00 34 1013.0
20260504225226 75 161 0.9 1.7 0.00 0.00 0.00 34 1013.1
20260504224723 75 134 1.7 3.5 0.00 0.00 0.00 34 1013.2
20260504224220 75 170 1.7 3.5 0.00 0.00 0.00 34 1013.2
20260504223716 75 186 1.7 3.5 0.00 0.00 0.00 34 1013.2
20260504223212 76 198 0.0 2.6 0.00 0.00 0.00 33 1013.1
20260504222709 76 156 1.7 2.6 0.00 0.00 0.00 34 1013.1
20260504222206 76 183 0.9 0.9 0.00 0.00 0.00 33 1013.0
20260504221703 76 142 0.0 1.7 0.00 0.00 0.00 33 1013.1
20260504221200 77 214 1.7 3.5 0.00 0.00 0.00 32 1012.9
20260504220656 76 219 0.9 3.5 0.00 0.00 0.00 32 1012.9
20260504220155 76 161 3.5 6.1 0.00 0.00 0.00 33 1013.1
20260504215650 77 167 0.0 2.6 0.00 0.00 0.00 32 1012.9
20260504215148 77 132 0.0 0.9 0.00 0.00 0.00 33 1012.9
20260504214643 77 146 2.6 3.5 0.00 0.00 0.00 31 1012.8
20260504214140 78 154 1.7 3.5 0.00 0.00 0.00 32 1012.9
20260504213637 79 226 2.6 3.5 0.00 0.00 0.00 31 1013.1
20260504213134 79 171 0.0 8.7 0.00 0.00 0.00 31 1012.9
20260504212630 79 172 0.9 5.2 0.00 0.00 0.00 31 1013.1
20260504212127 79 219 1.7 5.2 0.00 0.00 0.00 30 1012.9
20260504211625 79 184 0.0 1.7 0.00 0.00 0.00 33 1013.1
20260504211121 79 216 1.7 5.2 0.00 0.00 0.00 31 1013.0
20260504210619 81 183 0.9 5.2 0.00 0.00 0.00 30 1012.9
20260504210114 79 195 0.0 2.6 0.00 0.00 0.00 31 1013.0
20260504205612 79 165 0.9 3.5 0.00 0.00 0.00 34 1012.8
20260504205110 78 196 2.6 3.5 0.00 0.00 0.00 32 1013.0
20260504204608 79 193 1.7 3.5 0.00 0.00 0.00 31 1012.9
20260504204107 80 217 0.9 3.5 0.00 0.00 0.00 31 1013.1
20260504203605 80 188 0.0 2.6 0.00 0.00 0.00 31 1013.1
20260504203102 79 186 0.9 2.6 0.00 0.00 0.00 31 1013.3
20260504202557 80 202 2.6 5.2 0.00 0.00 0.00 31 1013.3
20260504202054 80 178 1.7 1.7 0.00 0.00 0.00 33 1013.5
20260504201551 80 180 0.0 1.7 0.00 0.00 0.00 31 1013.3
20260504201049 78 183 0.0 1.7 0.00 0.00 0.00 34 1013.3
20260504200545 78 214 2.6 5.2 0.00 0.00 0.00 32 1013.3
20260504200042 79 143 4.3 7.0 0.00 0.00 0.00 31 1013.4
20260504195538 79 169 0.9 1.7 0.00 0.00 0.00 32 1013.5
20260504195035 80 118 0.9 5.2 0.00 0.00 0.00 32 1013.6
20260504194531 78 183 1.7 1.7 0.00 0.00 0.00 32 1013.8
20260504194027 78 290 2.6 2.6 0.00 0.00 0.00 32 1013.8
20260504193524 77 169 0.0 0.0 0.00 0.00 0.00 32 1013.9
20260504193022 76 186 1.7 6.1 0.00 0.00 0.00 33 1014.0
20260504192520 76 130 1.7 2.6 0.00 0.00 0.00 33 1014.1
20260504192018 77 169 0.0 0.0 0.00 0.00 0.00 34 1014.1
20260504191516 77 211 1.7 2.6 0.00 0.00 0.00 32 1014.1
20260504191012 77 182 0.9 0.9 0.00 0.00 0.00 34 1014.5
20260504190508 77 203 0.9 1.7 0.00 0.00 0.00 32 1014.4
20260504190004 77 190 0.0 1.7 0.00 0.00 0.00 31 1014.5
20260504185501 76 135 1.7 2.6 0.00 0.00 0.00 30 1014.3
20260504184958 76 160 1.7 1.7 0.00 0.00 0.00 31 1014.4
20260504184453 76 207 1.7 3.5 0.00 0.00 0.00 31 1014.7
20260504183949 76 144 1.7 5.2 0.00 0.00 0.00 31 1014.5
20260504183446 75 175 0.0 1.7 0.00 0.00 0.00 34 1014.5
20260504182944 76 215 1.7 5.2 0.00 0.00 0.00 31 1014.6
20260504182440 76 181 0.0 0.9 0.00 0.00 0.00 35 1014.8
20260504181938 76 151 1.7 2.6 0.00 0.00 0.00 34 1014.9
20260504181435 75 214 0.9 1.7 0.00 0.00 0.00 32 1015.1
20260504180934 75 207 2.6 2.6 0.00 0.00 0.00 34 1015.1
20260504180432 74 142 0.9 1.7 0.00 0.00 0.00 32 1014.9
20260504175930 74 148 0.9 1.7 0.00 0.00 0.00 36 1015.1
20260504175427 74 133 0.9 3.5 0.00 0.00 0.00 33 1015.2
20260504174925 74 209 1.7 1.7 0.00 0.00 0.00 34 1015.1
20260504174422 73 192 0.9 1.7 0.00 0.00 0.00 35 1015.2
20260504173919 72 195 1.7 2.6 0.00 0.00 0.00 34 1015.4
20260504173416 72 172 1.7 2.6 0.00 0.00 0.00 34 1015.3
20260504172913 74 207 2.6 3.5 0.00 0.00 0.00 33 1015.3
20260504172409 75 157 4.3 5.2 0.00 0.00 0.00 32 1015.5
20260504171905 76 175 0.9 2.6 0.00 0.00 0.00 36 1015.5
20260504171403 75 160 0.0 0.9 0.00 0.00 0.00 33 1015.6
20260504170900 75 118 0.9 1.7 0.00 0.00 0.00 32 1015.7
20260504170356 75 174 0.9 1.7 0.00 0.00 0.00 34 1015.9
20260504160315 73 18 0.9 3.5 0.00 0.00 0.00 32 1016.3
20260504150739 72 201 0.9 0.9 0.00 0.00 0.00 37 1016.9
20260504150236 70 160 0.0 0.0 0.00 0.00 0.00 36 1016.9
20260504141206 66 164 0.0 0.0 0.00 0.00 0.00 46 1016.9
20260504140703 66 164 0.0 0.0 0.00 0.00 0.00 46 1017.0
20260504140158 66 164 0.0 0.0 0.00 0.00 0.00 46 1017.0
20260504130626 62 198 0.9 1.7 0.00 0.00 0.00 48 1017.4
20260504130123 61 141 0.0 0.0 0.00 0.00 0.00 50 1017.3
20260504110503 48 160 0.0 0.0 0.00 0.00 0.00 72 1017.7
20260504100419 49 129 0.0 0.0 0.00 0.00 0.00 70 1017.7
20260504081812 48 133 0.0 0.0 0.00 0.00 0.00 70 1018.1
20260504081309 47 143 0.0 0.0 0.00 0.00 0.00 73 1018.1
20260504080805 48 145 0.0 0.0 0.00 0.00 0.00 73 1018.2
20260504080302 48 145 0.0 0.0 0.00 0.00 0.00 73 1018.0